DW8548 Weather Reports


time (UTC)temp
C
wind
direction
speed
KPH
gust
KPH
rain 1hr
cm
rain 24hr
cm
rain mn
cm
humidity
%
barometer
mb
20260510000059 12 28 0.0 1.6 0.00 0.00 0.00 67 1025.6
20260509234600 12 0 0.0 3.2 0.00 0.00 0.00 69 1025.5
20260509233056 11 0 0.0 1.6 0.00 0.00 0.00 71 1025.6
20260509231612 10 0 0.0 1.6 0.00 0.00 0.00 71 1025.6
20260509230100 11 0 0.0 1.6 0.00 0.00 0.00 69 1025.6
20260509224604 11 0 0.0 1.6 0.00 0.00 0.00 68 1025.3
20260509223059 11 0 0.0 3.2 0.00 0.00 0.00 67 1025.4
20260509221604 12 0 0.0 3.2 0.00 0.00 0.00 66 1025.5
20260509220055 12 171 0.0 1.6 0.00 0.00 0.00 66 1025.3
20260509214559 12 351 0.0 3.2 0.00 0.00 0.00 66 1025.2
20260509213056 12 0 0.0 1.6 0.00 0.00 0.00 66 1025.0
20260509211558 12 0 0.0 3.2 0.00 0.00 0.00 65 1024.9
20260509210113 12 0 0.0 3.2 0.00 0.00 0.00 65 1024.8
20260509204600 12 346 0.0 3.2 0.00 0.00 0.00 65 1024.6
20260509203059 12 0 0.0 1.6 0.00 0.00 0.00 64 1024.7
20260509201559 12 0 0.0 3.2 0.00 0.00 0.00 63 1024.3
20260509194558 12 0 0.0 3.2 0.00 0.00 0.00 62 1024.0
20260509193058 12 111 0.0 6.4 0.00 0.00 0.00 62 1023.9
20260509191558 13 0 0.0 3.2 0.00 0.00 0.00 61 1024.1
20260509190107 13 19 0.0 3.2 0.00 0.00 0.00 61 1024.0
20260509184552 12 355 0.0 6.4 0.00 0.00 0.00 62 1024.0
20260509183053 11 0 0.0 1.6 0.00 0.00 0.00 64 1024.1
20260509181559 11 0 0.0 1.6 0.00 0.00 0.00 64 1024.1
20260509180100 11 0 0.0 1.6 0.00 0.00 0.00 63 1024.1
20260509174557 11 0 0.0 1.6 0.00 0.00 0.00 65 1024.3
20260509173056 11 0 0.0 0.0 0.00 0.00 0.00 64 1024.4
20260509171555 11 74 0.0 0.0 0.00 0.00 0.00 65 1024.4
20260509170106 11 0 0.0 1.6 0.00 0.00 0.00 64 1024.4
20260509164557 11 0 0.0 0.0 0.00 0.00 0.00 64 1024.4
20260509163055 11 0 0.0 1.6 0.00 0.00 0.00 63 1024.5
20260509161558 11 0 0.0 1.6 0.00 0.00 0.00 64 1024.5
20260509160053 11 0 0.0 1.6 0.00 0.00 0.00 64 1024.6
20260509154559 11 0 0.0 1.6 0.00 0.00 0.00 68 1024.7
20260509153059 10 95 0.0 1.6 0.00 0.00 0.00 72 1024.8
20260509151558 9 0 0.0 0.0 0.00 0.00 0.00 72 1025.0
20260509150055 10 0 0.0 0.0 0.00 0.00 0.00 70 1025.1
20260509144552 10 0 0.0 0.0 0.00 0.00 0.00 70 1025.1
20260509143056 10 0 0.0 0.0 0.00 0.00 0.00 68 1025.2
20260509141554 11 0 0.0 0.0 0.00 0.00 0.00 66 1025.3
20260509134625 11 0 0.0 0.0 0.00 0.00 0.00 65 1025.1
20260509133057 11 0 0.0 0.0 0.00 0.00 0.00 63 1025.1
20260509131557 12 0 0.0 0.0 0.00 0.00 0.00 61 1025.0
20260509130052 12 0 0.0 0.0 0.00 0.00 0.00 59 1024.9
20260509124629 13 0 0.0 0.0 0.00 0.00 0.00 58 1024.9
20260509123058 13 0 0.0 4.8 0.00 0.00 0.00 59 1024.9
20260509121556 13 0 0.0 0.0 0.00 0.00 0.00 59 1024.7
20260509120056 13 0 0.0 1.6 0.00 0.00 0.00 56 1024.7
20260509114558 15 0 0.0 1.6 0.00 0.00 0.00 54 1024.6
20260509113057 14 0 0.0 0.0 0.00 0.00 0.00 58 1024.5
20260509111558 13 0 0.0 1.6 0.00 0.00 0.00 65 1024.5
20260509110055 13 0 0.0 0.0 0.00 0.00 0.00 65 1024.6
20260509104555 14 0 0.0 0.0 0.00 0.00 0.00 60 1024.6
20260509103100 15 0 0.0 0.0 0.00 0.00 0.00 59 1024.6
20260509101601 15 0 0.0 0.0 0.00 0.00 0.00 58 1024.5
20260509100058 16 0 0.0 0.0 0.00 0.00 0.00 54 1024.4
20260509094600 16 0 0.0 0.0 0.00 0.00 0.00 52 1024.3
20260509093058 18 0 0.0 0.0 0.00 0.00 0.00 47 1024.3
20260509091555 18 0 0.0 0.0 0.00 0.00 0.00 44 1024.3
20260509090053 20 0 0.0 0.0 0.00 0.00 0.00 40 1024.3
20260509084555 21 0 0.0 3.2 0.00 0.00 0.00 36 1024.3
20260509083054 20 0 0.0 0.0 0.00 0.00 0.00 38 1024.2
20260509081555 21 0 0.0 3.2 0.00 0.00 0.00 36 1024.2
20260509080055 21 0 0.0 3.2 0.00 0.00 0.00 36 1024.2
20260509074603 22 0 0.0 3.2 0.00 0.00 0.00 36 1024.1
20260509073101 22 0 0.0 8.0 0.00 0.00 0.00 34 1024.0
20260509071608 23 0 0.0 6.4 0.00 0.00 0.00 33 1023.9
20260509070053 23 0 0.0 6.4 0.00 0.00 0.00 34 1023.7
20260509064559 23 0 0.0 3.2 0.00 0.00 0.00 34 1023.5
20260509063055 23 0 0.0 4.8 0.00 0.00 0.00 34 1023.5
20260509061623 22 69 1.6 12.9 0.00 0.00 0.00 35 1023.5
20260509060054 23 0 0.0 4.8 0.00 0.00 0.00 35 1023.6
20260509054555 23 61 0.0 4.8 0.00 0.00 0.00 36 1023.7
20260509053056 23 208 0.0 6.4 0.00 0.00 0.00 39 1023.9
20260509051552 22 347 1.6 9.7 0.00 0.00 0.00 38 1024.0
20260509050105 22 311 1.6 6.4 0.00 0.00 0.00 40 1024.1
20260509044556 22 111 1.6 11.3 0.00 0.00 0.00 40 1024.4
20260509043058 22 0 1.6 9.7 0.00 0.00 0.00 41 1024.7
20260509041554 21 345 0.0 6.4 0.00 0.00 0.00 42 1025.1
20260509040054 21 0 0.0 6.4 0.00 0.00 0.00 43 1025.5
20260509034555 21 12 1.6 12.9 0.00 0.00 0.00 44 1025.7
20260509033311 20 174 1.6 11.3 0.00 0.00 0.00 45 1026.0
20260509031554 20 348 1.6 4.8 0.00 0.00 0.00 46 1026.3
20260509030057 19 235 0.0 6.4 0.00 0.00 0.00 49 1026.8
20260509024604 18 355 0.0 6.4 0.00 0.00 0.00 49 1026.9
20260509021554 17 283 1.6 9.7 0.00 0.00 0.00 51 1027.1
20260509014559 16 180 1.6 11.3 0.00 0.00 0.00 53 1027.1
20260509013058 16 333 1.6 8.0 0.00 0.00 0.00 54 1027.3
20260509011601 16 162 1.6 9.7 0.00 0.00 0.00 56 1027.4
20260509010237 15 344 1.6 11.3 0.00 0.00 0.00 57 1027.6
20260509010110 15 344 1.6 11.3 0.00 0.00 0.00 57 1027.6
20260509004619 15 234 1.6 8.0 0.00 0.00 0.00 60 1027.7
20260509003057 13 0 1.6 6.4 0.00 0.00 0.00 63 1027.6
20260509001557 13 15 1.6 9.7 0.00 0.00 0.00 66 1027.6